sat.trackr.live / text

‹ back to catalog

STARLINK-35981

NORAD 66598 · 2025-270L

PAYLOAD ACTIVE UNKNOWN

§ Identity

Operator
Country
US
Launch date
2025-11-22
Launch site
AFETR
Launch vehicle
Mass (kg)
RCS (m²)

Purposes: comms

External: N2YO · Heavens-Above · Gunter

§ Orbital elements

Epoch: 2026-09-20T08:52:05.834208Z

Period
94.27 min
Inclination
43.0039°
Eccentricity
0.0002895
Mean motion
15.27585361 rev/d
Perigee alt
481.0 km
Apogee alt
485.0 km
Semi-major
6,861.2 km
B*
6.7089e-4
RAAN
36.3821°
Arg perigee
282.9730°
Mean anomaly
77.0798°
Rev number
4,733

§ Raw data

STARLINK-359811 66598U 25270L   26263.36951197  .00018249  00000+0  67089-3 0  99962 66598  43.0039  36.3821 0002895 282.9730  77.0798 15.27585361 47331

JSON: /api/v1/satellites/66598 · /tle

For live sub-satellite position, see the globe view (requires WebGL).

§ Visibility from observer

Set your observer location to see the next 7 days of passes ≥ 10°. The values pass through the URL so the page stays shareable.

No JS? Fill the form by hand. The geolocation button needs JavaScript.